EZY78NT EGKK-LICJ

Flight info

Callsign EZY78NT
Flight time 2h 20m
Altitude 35000
Route SFD1X SFD Y47 BENBO L612 HAWKE UL612 OGULO DCT OKASI DCT OKEKO DCT MOU DCT MADIV DCT MOKIP DCT TUFTA DCT KOGAS DCT MEDAM DCT NITAM DCT MOGBO DCT BAKRO DCT POKAV DCT BETOT DCT RUVIP DCT RONAB DCT GIANO GIANO3N
Aircraft A320/M-SDE3FGHIRWY/LB1

Departure

Time 2026-05-04 06:41
Airport London Gatwick Airport (EGKK)

Arrival

Time 2026-05-04 09:02
Airport Falcone–Borsellino Airport (LICJ)
Time Latitude Longitude Altitude Speed Heading
2026-05-04 06:25 51.15583 -0.17685 205 ft 0 kts 347°
2026-05-04 06:32 51.15562 -0.17679 193 ft 4 kts 355°
2026-05-04 06:33 51.15511 -0.17716 217 ft 0 kts 77°
2026-05-04 06:37 51.15519 -0.17659 215 ft 14 kts 77°
2026-05-04 06:37 51.15539 -0.17507 205 ft 12 kts 79°
2026-05-04 06:38 51.15507 -0.17431 208 ft 8 kts 162°
2026-05-04 06:38 51.15424 -0.17400 210 ft 18 kts 167°
2026-05-04 06:40 51.15112 -0.16885 213 ft 0 kts 256°
2026-05-04 06:40 51.15091 -0.17031 212 ft 48 kts 258°
2026-05-04 06:41 51.14971 -0.17905 216 ft 113 kts 257°
2026-05-04 06:41 51.14761 -0.19423 214 ft 165 kts 258°
2026-05-04 06:41 51.14514 -0.21219 788 ft 166 kts 258°
2026-05-04 06:41 51.14258 -0.23097 1296 ft 183 kts 259°
2026-05-04 06:42 51.13969 -0.25176 1694 ft 202 kts 258°
2026-05-04 06:42 51.13660 -0.27394 2335 ft 207 kts 258°
2026-05-04 06:42 51.13346 -0.29655 3059 ft 215 kts 258°
2026-05-04 06:44 51.06752 -0.41941 8061 ft 275 kts 176°
2026-05-04 06:44 51.04840 -0.41651 8948 ft 277 kts 175°
2026-05-04 06:44 51.02915 -0.41333 9820 ft 281 kts 175°
2026-05-04 06:45 51.00925 -0.41019 10393 ft 292 kts 176°
2026-05-04 06:45 50.98914 -0.40721 11121 ft 296 kts 176°
2026-05-04 06:45 50.96849 -0.40436 11891 ft 300 kts 176°
2026-05-04 06:45 50.94761 -0.40161 12666 ft 303 kts 176°
2026-05-04 06:46 50.92648 -0.39890 13434 ft 307 kts 177°
2026-05-04 06:46 50.90447 -0.39612 13731 ft 326 kts 176°
2026-05-04 06:46 50.88155 -0.39325 14262 ft 334 kts 176°
2026-05-04 06:46 50.85828 -0.39036 14930 ft 337 kts 176°
2026-05-04 06:48 50.70695 -0.25679 18557 ft 381 kts 149°
2026-05-04 06:48 50.68468 -0.23373 19044 ft 384 kts 149°
2026-05-04 06:49 50.66237 -0.21042 19528 ft 387 kts 149°
2026-05-04 06:50 50.50163 -0.04223 22958 ft 409 kts 149°
2026-05-04 06:51 50.47777 -0.01743 23330 ft 413 kts 150°
2026-05-04 06:51 50.45366 0.00763 23654 ft 418 kts 149°
2026-05-04 06:51 50.42933 0.03290 23963 ft 421 kts 150°
2026-05-04 06:51 50.40509 0.05799 24266 ft 424 kts 150°
2026-05-04 06:52 50.38039 0.08355 24578 ft 426 kts 150°
2026-05-04 06:52 50.35558 0.10919 24894 ft 428 kts 150°
2026-05-04 06:52 50.33067 0.13492 25214 ft 430 kts 150°
2026-05-04 06:52 50.30567 0.16070 25544 ft 431 kts 150°
2026-05-04 06:53 50.28066 0.18644 25868 ft 431 kts 150°
2026-05-04 06:53 50.25556 0.21224 26198 ft 432 kts 150°
2026-05-04 06:53 50.23047 0.23798 26531 ft 432 kts 151°
2026-05-04 06:53 50.20538 0.26369 26862 ft 431 kts 151°
2026-05-04 06:54 50.18067 0.28905 27198 ft 431 kts 151°
2026-05-04 06:54 50.15564 0.31479 27541 ft 430 kts 151°
2026-05-04 06:54 50.13071 0.34046 27892 ft 429 kts 151°
2026-05-04 06:54 50.10585 0.36607 28244 ft 428 kts 151°
2026-05-04 06:55 50.08100 0.39160 28599 ft 427 kts 151°
2026-05-04 06:55 50.05627 0.41696 28965 ft 425 kts 151°
2026-05-04 06:55 50.03160 0.44219 29333 ft 423 kts 152°
2026-05-04 06:55 50.00705 0.46725 29669 ft 422 kts 152°
2026-05-04 06:56 49.98282 0.49191 30044 ft 421 kts 152°
2026-05-04 06:57 49.81548 0.67196 32338 ft 419 kts 146°
2026-05-04 06:58 49.79288 0.70045 32679 ft 419 kts 146°
2026-05-04 06:58 49.77032 0.72883 33028 ft 418 kts 146°
2026-05-04 06:58 49.74778 0.75716 33389 ft 417 kts 146°
2026-05-04 06:58 49.72534 0.78535 33742 ft 416 kts 146°
2026-05-04 06:59 49.70289 0.81348 34078 ft 415 kts 146°
2026-05-04 06:59 49.68050 0.84149 34388 ft 414 kts 145°
2026-05-04 06:59 49.65818 0.86939 34697 ft 412 kts 145°
2026-05-04 06:59 49.63618 0.89683 34933 ft 413 kts 145°
2026-05-04 07:01 49.47281 1.09967 34997 ft 445 kts 146°
2026-05-04 07:01 49.44892 1.12927 34998 ft 447 kts 146°
2026-05-04 07:02 49.40032 1.18925 35004 ft 449 kts 146°
2026-05-04 07:02 49.35153 1.24929 35002 ft 449 kts 146°
2026-05-04 07:03 49.30275 1.30922 34996 ft 449 kts 146°
2026-05-04 07:03 49.25422 1.36860 34972 ft 450 kts 146°
2026-05-04 07:04 49.20534 1.42830 34976 ft 450 kts 146°
2026-05-04 07:04 49.15641 1.48786 34982 ft 450 kts 146°
2026-05-04 07:05 49.10751 1.54726 34977 ft 449 kts 146°
2026-05-04 07:05 49.05896 1.60608 34968 ft 448 kts 146°
2026-05-04 07:06 48.98588 1.69448 34974 ft 447 kts 146°
2026-05-04 07:07 48.93708 1.75310 34976 ft 447 kts 146°
2026-05-04 07:09 48.74253 1.98573 34974 ft 445 kts 147°
2026-05-04 07:09 48.69376 2.04357 34972 ft 445 kts 147°
2026-05-04 07:10 48.64531 2.10102 34975 ft 446 kts 147°
2026-05-04 07:12 48.46179 2.35409 34971 ft 450 kts 140°
2026-05-04 07:12 48.41758 2.42084 34974 ft 450 kts 140°
2026-05-04 07:13 48.37335 2.48744 34975 ft 450 kts 140°
2026-05-04 07:13 48.32916 2.55391 34975 ft 450 kts 140°
2026-05-04 07:14 48.23024 2.66100 34974 ft 437 kts 160°
2026-05-04 07:14 48.20267 2.68028 34969 ft 438 kts 159°
2026-05-04 07:15 48.14850 2.72296 34964 ft 441 kts 156°
2026-05-04 07:15 48.09490 2.76773 34971 ft 441 kts 156°
2026-05-04 07:16 48.03996 2.80592 34975 ft 438 kts 161°
2026-05-04 07:16 47.98388 2.84149 34977 ft 437 kts 162°
2026-05-04 07:17 47.92776 2.87666 34976 ft 438 kts 161°
2026-05-04 07:17 47.87200 2.91185 34979 ft 438 kts 161°
2026-05-04 07:18 47.81589 2.94742 34982 ft 438 kts 161°
2026-05-04 07:18 47.75972 2.98288 34969 ft 439 kts 161°
2026-05-04 07:19 47.70355 3.01819 34978 ft 438 kts 161°
2026-05-04 07:19 47.64735 3.05347 34980 ft 438 kts 161°
2026-05-04 07:20 47.59155 3.08847 34981 ft 438 kts 162°
2026-05-04 07:20 47.53538 3.12362 34973 ft 438 kts 161°
2026-05-04 07:22 47.31102 3.26282 34962 ft 436 kts 162°
2026-05-04 07:23 47.25502 3.29739 34969 ft 437 kts 162°
2026-05-04 07:23 47.19894 3.33196 34957 ft 437 kts 162°
2026-05-04 07:24 47.14310 3.36622 34964 ft 438 kts 162°
2026-05-04 07:24 47.08681 3.40060 34963 ft 438 kts 162°
2026-05-04 07:26 46.86182 3.53799 34993 ft 439 kts 162°
2026-05-04 07:27 46.80531 3.57220 34991 ft 439 kts 162°
2026-05-04 07:27 46.74990 3.61021 34992 ft 446 kts 150°
2026-05-04 07:28 46.72583 3.63940 34993 ft 455 kts 139°
2026-05-04 07:28 46.70627 3.67608 34991 ft 465 kts 126°
2026-05-04 07:28 46.69257 3.71845 34989 ft 475 kts 114°
2026-05-04 07:28 46.68405 3.76520 34991 ft 479 kts 109°
2026-05-04 07:29 46.66822 3.85940 34988 ft 479 kts 109°
2026-05-04 07:29 46.65216 3.95362 34990 ft 480 kts 109°
2026-05-04 07:30 46.63586 4.04778 34971 ft 480 kts 109°
2026-05-04 07:30 46.61952 4.14124 34978 ft 480 kts 109°
2026-05-04 07:31 46.60298 4.23536 34988 ft 480 kts 109°
2026-05-04 07:33 46.53655 4.61095 35019 ft 480 kts 110°
2026-05-04 07:33 46.51968 4.70476 35027 ft 480 kts 110°
2026-05-04 07:34 46.50274 4.79855 35028 ft 480 kts 110°
2026-05-04 07:34 46.48576 4.89237 35018 ft 481 kts 110°
2026-05-04 07:35 46.46881 4.98559 35027 ft 481 kts 110°
2026-05-04 07:35 46.45157 5.07936 35023 ft 481 kts 110°
2026-05-04 07:36 46.43425 5.17308 35028 ft 481 kts 110°
2026-05-04 07:38 46.35177 5.48297 35037 ft 462 kts 136°
2026-05-04 07:38 46.33085 5.51834 35044 ft 462 kts 136°
2026-05-04 07:38 46.28903 5.58910 35046 ft 463 kts 136°
2026-05-04 07:39 46.24717 5.65988 35022 ft 464 kts 136°
2026-05-04 07:39 46.20545 5.73023 35032 ft 464 kts 136°
2026-05-04 07:40 46.16335 5.80104 35032 ft 465 kts 136°
2026-05-04 07:40 46.12117 5.87181 35043 ft 465 kts 135°
2026-05-04 07:41 46.07892 5.94242 35049 ft 465 kts 136°
2026-05-04 07:41 46.03662 6.01305 35035 ft 466 kts 136°
2026-05-04 07:42 45.99444 6.08320 35030 ft 467 kts 136°
2026-05-04 07:42 45.95183 6.15380 35040 ft 468 kts 136°
2026-05-04 07:43 45.90906 6.22457 35044 ft 469 kts 136°
2026-05-04 07:43 45.86631 6.29531 35047 ft 469 kts 136°
2026-05-04 07:44 45.82367 6.36553 35025 ft 470 kts 137°
2026-05-04 07:44 45.77451 6.42542 35021 ft 462 kts 149°
2026-05-04 07:45 45.72209 6.47866 35027 ft 463 kts 149°
2026-05-04 07:45 45.66962 6.53206 35029 ft 463 kts 149°
2026-05-04 07:46 45.61740 6.58504 35056 ft 463 kts 149°
2026-05-04 07:46 45.56480 6.63826 35046 ft 464 kts 149°
2026-05-04 07:47 45.51206 6.69151 35048 ft 465 kts 149°
2026-05-04 07:49 45.30056 6.90384 35150 ft 466 kts 149°
2026-05-04 07:49 45.24934 6.96058 35142 ft 472 kts 140°
2026-05-04 07:50 45.20227 7.02557 35164 ft 472 kts 140°
2026-05-04 07:50 45.15515 7.09046 35168 ft 472 kts 140°
2026-05-04 07:51 45.10877 7.15539 35165 ft 475 kts 135°
2026-05-04 07:51 45.06960 7.23138 35174 ft 479 kts 129°
2026-05-04 07:52 45.03142 7.30835 35165 ft 478 kts 129°
2026-05-04 07:52 44.99305 7.38515 35123 ft 478 kts 129°
2026-05-04 07:54 44.81164 7.65265 35115 ft 472 kts 138°
2026-05-04 07:55 44.76557 7.71863 35129 ft 473 kts 138°
2026-05-04 07:55 44.71984 7.78417 35123 ft 473 kts 138°
2026-05-04 07:56 44.67366 7.85014 35132 ft 474 kts 138°
2026-05-04 07:56 44.62735 7.91601 35133 ft 474 kts 138°
2026-05-04 07:57 44.58097 7.98178 35118 ft 474 kts 138°
2026-05-04 07:57 44.53493 8.04691 35130 ft 474 kts 138°
2026-05-04 07:58 44.48844 8.11243 35137 ft 474 kts 138°
2026-05-04 07:58 44.44194 8.17793 35142 ft 475 kts 138°
2026-05-04 07:59 44.39539 8.24340 35147 ft 475 kts 138°
2026-05-04 07:59 44.34907 8.30837 35150 ft 475 kts 138°
2026-05-04 08:00 44.30237 8.37356 35140 ft 474 kts 138°
2026-05-04 08:02 44.11643 8.63200 35134 ft 473 kts 138°
2026-05-04 08:02 44.06973 8.69645 35130 ft 473 kts 138°
2026-05-04 08:03 44.02301 8.76098 35122 ft 474 kts 138°
2026-05-04 08:03 43.97650 8.82503 35119 ft 474 kts 138°
2026-05-04 08:04 43.92954 8.88944 35106 ft 475 kts 138°
2026-05-04 08:04 43.88251 8.95368 35125 ft 475 kts 138°
2026-05-04 08:05 43.83543 9.01789 35113 ft 475 kts 138°
2026-05-04 08:05 43.78833 9.08204 35115 ft 475 kts 138°
2026-05-04 08:06 43.74149 9.14578 35100 ft 476 kts 138°
2026-05-04 08:06 43.69433 9.20995 35103 ft 476 kts 138°
2026-05-04 08:08 43.50476 9.46562 35108 ft 478 kts 139°
2026-05-04 08:11 43.29036 9.75165 35130 ft 479 kts 139°
2026-05-04 08:11 43.21846 9.84703 35134 ft 479 kts 139°
2026-05-04 08:12 43.16601 9.90200 35123 ft 472 kts 155°
2026-05-04 08:12 43.10761 9.94129 35126 ft 471 kts 157°
2026-05-04 08:13 43.04861 9.98054 35128 ft 471 kts 157°
2026-05-04 08:13 42.98966 10.01983 35126 ft 471 kts 157°
2026-05-04 08:14 42.93069 10.05919 35125 ft 472 kts 157°
2026-05-04 08:16 42.69430 10.21567 35120 ft 475 kts 157°
2026-05-04 08:16 42.63527 10.25461 35123 ft 475 kts 157°
2026-05-04 08:17 42.57575 10.29371 35133 ft 476 kts 157°
2026-05-04 08:17 42.51607 10.33283 35122 ft 477 kts 158°
2026-05-04 08:19 42.27652 10.48924 35143 ft 480 kts 158°
2026-05-04 08:20 42.21636 10.52829 35146 ft 480 kts 158°
2026-05-04 08:20 42.15614 10.56719 35150 ft 480 kts 158°
2026-05-04 08:21 42.09623 10.60592 35141 ft 481 kts 158°
2026-05-04 08:21 42.03584 10.64483 35137 ft 482 kts 158°
2026-05-04 08:22 41.97524 10.68379 35139 ft 483 kts 158°
2026-05-04 08:24 41.73261 10.83912 35144 ft 485 kts 158°
2026-05-04 08:24 41.67173 10.87789 35141 ft 485 kts 159°
2026-05-04 08:25 41.61114 10.91629 35142 ft 486 kts 159°
2026-05-04 08:25 41.54997 10.95498 35143 ft 487 kts 159°
2026-05-04 08:27 41.30473 11.10997 35161 ft 490 kts 159°
2026-05-04 08:28 41.24306 11.14865 35166 ft 490 kts 159°
2026-05-04 08:28 41.18118 11.18730 35164 ft 494 kts 160°
2026-05-04 08:29 41.11893 11.22612 35162 ft 494 kts 160°
2026-05-04 08:31 40.86985 11.38114 35145 ft 497 kts 160°
2026-05-04 08:33 40.61386 11.51486 35153 ft 498 kts 164°
2026-05-04 08:35 40.35426 11.64760 35169 ft 502 kts 165°
2026-05-04 08:35 40.28946 11.68030 35153 ft 503 kts 164°
2026-05-04 08:37 40.06027 11.79561 35174 ft 505 kts 164°
2026-05-04 08:38 39.99510 11.82822 35183 ft 505 kts 164°
2026-05-04 08:38 39.92945 11.86115 35186 ft 506 kts 164°
2026-05-04 08:40 39.66963 12.00426 35176 ft 509 kts 161°
2026-05-04 08:41 39.60465 12.04086 35162 ft 510 kts 162°
2026-05-04 08:41 39.57199 12.05886 34656 ft 505 kts 162°
2026-05-04 08:41 39.54001 12.07649 33963 ft 496 kts 162°
2026-05-04 08:41 39.50862 12.09391 33206 ft 487 kts 161°
2026-05-04 08:42 39.47806 12.11096 32481 ft 484 kts 161°
2026-05-04 08:42 39.44721 12.12816 31766 ft 483 kts 161°
2026-05-04 08:42 39.41631 12.14537 31069 ft 483 kts 161°
2026-05-04 08:42 39.38540 12.16257 30377 ft 484 kts 161°
2026-05-04 08:43 39.35475 12.17965 29620 ft 481 kts 160°
2026-05-04 08:43 39.32410 12.19672 28859 ft 479 kts 160°
2026-05-04 08:43 39.29348 12.21370 28108 ft 477 kts 160°
2026-05-04 08:43 39.26313 12.23051 27382 ft 473 kts 160°
2026-05-04 08:44 39.23291 12.24721 26672 ft 470 kts 160°
2026-05-04 08:44 39.20341 12.26351 25990 ft 467 kts 160°
2026-05-04 08:46 38.99718 12.37736 21119 ft 451 kts 159°
2026-05-04 08:46 38.96880 12.39294 20436 ft 450 kts 159°
2026-05-04 08:46 38.94000 12.40869 19761 ft 451 kts 159°
2026-05-04 08:46 38.91111 12.42446 19089 ft 452 kts 159°
2026-05-04 08:47 38.88219 12.44024 18430 ft 450 kts 159°
2026-05-04 08:47 38.85401 12.45586 17687 ft 433 kts 158°
2026-05-04 08:47 38.82681 12.47177 16961 ft 426 kts 156°
2026-05-04 08:47 38.80058 12.48772 16253 ft 409 kts 156°
2026-05-04 08:48 38.77525 12.50338 15562 ft 401 kts 156°
2026-05-04 08:48 38.75026 12.51882 14888 ft 398 kts 156°
2026-05-04 08:48 38.72566 12.53391 14230 ft 397 kts 156°
2026-05-04 08:48 38.70088 12.54894 13523 ft 389 kts 156°
2026-05-04 08:49 38.67695 12.56332 12851 ft 370 kts 156°
2026-05-04 08:50 38.55506 12.63603 10351 ft 297 kts 156°
2026-05-04 08:50 38.53655 12.64710 10033 ft 298 kts 156°
2026-05-04 08:51 38.51786 12.65824 9660 ft 295 kts 157°
2026-05-04 08:51 38.49929 12.66925 9299 ft 293 kts 157°
2026-05-04 08:51 38.48086 12.68023 8941 ft 291 kts 157°
2026-05-04 08:51 38.46260 12.69112 8587 ft 288 kts 157°
2026-05-04 08:52 38.44453 12.70187 8259 ft 284 kts 157°
2026-05-04 08:52 38.42690 12.71233 8005 ft 276 kts 157°
2026-05-04 08:52 38.40970 12.72253 7753 ft 269 kts 157°
2026-05-04 08:52 38.39298 12.73247 7505 ft 262 kts 157°
2026-05-04 08:53 38.37665 12.74216 7279 ft 256 kts 157°
2026-05-04 08:54 38.27188 12.80422 5514 ft 228 kts 157°
2026-05-04 08:55 38.25754 12.81268 5242 ft 226 kts 156°
2026-05-04 08:55 38.24383 12.82229 4968 ft 225 kts 144°
2026-05-04 08:55 38.23190 12.83459 4693 ft 223 kts 142°
2026-05-04 08:55 38.21996 12.84698 4415 ft 220 kts 142°
2026-05-04 08:57 38.15056 12.91885 2689 ft 156 kts 144°
2026-05-04 09:01 38.17095 13.07649 306 ft 132 kts 66°
2026-05-04 09:01 38.17452 13.08709 116 ft 129 kts 64°
2026-05-04 09:01 38.17788 13.09712 69 ft 112 kts 66°
2026-05-04 09:01 38.18032 13.10430 61 ft 66 kts 65°
2026-05-04 09:02 38.18131 13.10729 65 ft 8 kts 73°
2026-05-04 09:02 38.18161 13.10752 64 ft 3 kts 317°
2026-05-04 09:02 38.18171 13.10686 70 ft 18 kts 277°
2026-05-04 09:02 38.18191 13.10499 60 ft 23 kts 277°
2026-05-04 09:03 38.18228 13.10377 62 ft 13 kts 327°
2026-05-04 09:03 38.18306 13.10410 61 ft 15 kts 64°
2026-05-04 09:03 38.18383 13.10499 65 ft 17 kts 21°
2026-05-04 09:03 38.18455 13.10566 65 ft 12 kts 63°
2026-05-04 09:04 38.18477 13.10634 63 ft 13 kts 68°
2026-05-04 09:04 38.18512 13.10693 62 ft 3 kts 349°
2026-05-04 09:04 38.18551 13.10672 58 ft 4 kts 337°
2026-05-04 09:04 38.18566 13.10664 63 ft 0 kts 337°